Location: Amon Carter Post Office
(32.8281°N, 97.0484°W)
Time: 15:17:08
(UTC+00:00)

Lacrosse 5 rocket - Visible Passes

Search period start: 03 July 2022 00:00
Search period end: 13 July 2022 00:00
Orbit: 456 x 629 km, 57.0° (Epoch: 03 July)

Date Brightness Start Highest point End Pass type
(mag) Time Alt. Az. Time Alt. Az. Time Alt. Az.
03 Jul 2.3 03:04:07 10° NNW 03:07:44 35° NE 03:09:23 25° E visible
03 Jul 3.8 04:43:38 10° WNW 04:44:55 15° W 04:44:55 15° W visible
04 Jul 1.8 02:56:27 10° NNW 03:00:14 47° NE 03:02:11 26° ESE visible
04 Jul 3.9 04:36:46 10° W 04:37:43 13° W 04:37:43 13° W visible
05 Jul 1.4 02:48:50 10° NNW 02:52:42 64° NE 02:55:04 24° SE visible
06 Jul 1.2 02:41:16 10° NW 02:45:10 88° NE 02:48:00 19° SE visible
07 Jul 1.5 02:33:45 10° NW 02:37:37 66° SW 02:41:00 14° SSE visible
08 Jul 2.0 02:26:18 10° NW 02:30:03 47° SW 02:34:00 10° SSE visible
09 Jul 2.6 02:18:54 10° WNW 02:22:27 34° SW 02:26:11 10° S visible
10 Jul 3.2 02:11:38 10° WNW 02:14:51 25° WSW 02:18:13 10° S visible
11 Jul 3.6 02:04:29 10° WNW 02:07:14 18° WSW 02:10:04 10° SSW visible
